Flag for U.S.A. Weather past 2 weeks in Seattle, Washington, U.S.A.

Now
91 °F

Sunny.


Feels Like: 88 °F
Forecast: 63 / 85 °F
Wind: 9 mph from Northwest

Location: Seattle Boeing Field

Current Time: Jul 30, 2015 at 6:41:42 PM

Latest Report: Jul 30, 2015 at 5:53 PM


Visibility: 10 mi

Pressure: 30.00 "Hg

Humidity: 22%

Dew point: 47 °F

Location of SeattleLocation

Historic Weather in Seattle — Graph

°F

Seattle temperature yesterday

Maximum temperature yesterday: 88 °F (at 2:53 PM)
Minimum temperature yesterday: 62 °F (at 5:53 AM)
Average temperature yesterday: 76 °F

Past Weeks' High & Low Weather Summary

 TemperatureHumidityPressure
High97 °F (Jul 19, 3:53 PM)85% (Jul 25, 12:53 AM)30.28 "Hg (Jul 25, 12:53 AM)
Low56 °F (Jul 27, 5:53 AM)17% (Jul 18, 4:53 PM)29.85 "Hg (Jul 22, 5:53 PM)
Average71 °F53%30.05 "Hg
* Reported Jul 15 4:53 PM — Jul 30 4:53 PM, Seattle, Weather by CustomWeather, © 2015

Note: Actual official high and low records may vary slightly from our data, if they occured in-between our weather recording intervals... More about our weather records

Advertising

Seattle weather history for previous 24 hours

 ConditionsComfort  
Time TempWeatherWind HumidityBarometerVisibility
4:53 PM
Thu, Jul 30
92 °FSunny.8 mph22%30.01 "Hg10 mi
3:53 PM91 °FSunny.8 mph24%30.02 "Hg10 mi
2:53 PM90 °FSunny.9 mph24%30.04 "Hg10 mi
1:53 PM87 °FSunny.8 mph28%30.06 "Hg10 mi
12:53 PM85 °FSunny.9 mph29%30.07 "Hg10 mi
11:53 AM85 °FSunny.7 mph29%30.07 "Hg10 mi
10:53 AM80 °FSunny.7 mph35%30.09 "Hg10 mi
9:53 AM78 °FSunny.No wind40%30.09 "Hg10 mi
8:53 AM74 °FSunny.No wind46%30.11 "Hg10 mi
7:53 AM71 °FSunny.No wind55%30.11 "Hg10 mi
6:53 AM67 °FSunny.No wind59%30.10 "Hg10 mi
5:53 AM66 °FClear.No wind59%30.09 "Hg10 mi
4:53 AM67 °FClear.No wind57%30.08 "Hg10 mi
3:53 AM67 °FClear.No wind63%30.08 "Hg10 mi
2:53 AM70 °FClear.No wind57%30.09 "Hg10 mi
1:53 AM72 °FClear.No wind52%30.09 "Hg10 mi
12:53 AM74 °FClear.3 mph46%30.09 "Hg10 mi
11:53 PM
Wed, Jul 29
76 °FClear.No wind40%30.08 "Hg10 mi
10:53 PM75 °FClear.No wind42%30.08 "Hg10 mi
9:53 PM77 °FClear.No wind39%30.08 "Hg10 mi
8:53 PM80 °FSunny.5 mph35%30.07 "Hg10 mi
7:53 PM84 °FSunny.7 mph29%30.06 "Hg10 mi
6:53 PM87 °FSunny.8 mph27%30.06 "Hg10 mi
Weather by CustomWeather, © 2015

See weather overviewHow to use our weather pages